Terminal Aerodrome Forecast
Issued by NWS Denver/Boulder, CO

Home | Current Version | Previous Version | Text Only | Print | Product List | Glossary On
Versions: 1 2 3 4 5 6 7 8 9 10 11 12 13 14 15 16 17 18 19 20 21 22 23 24 25 26 27 28 29 30 31 32 33 34 35 36 37 38 39 40 41 42 43 44 45 46 47 48 49 50
000
FTUS45 KBOU 261106 AAB
TAFDEN
TAF AMD
KDEN 261106Z 2611/2712 19010KT P6SM VCSH FEW050 SCT080 OVC100
     FM261300 30008KT P6SM VCFG FEW020 BKN080
     FM261700 VRB06KT P6SM SCT025 BKN050
     FM262100 09009KT P6SM SCT060 BKN150 PROB30 2621/2702 VRB15G25KT
      P6SM -TSRA SCT050CB BKN120
     FM270200 15010KT P6SM SCT080 BKN150
     FM270500 20011KT P6SM SCT100 BKN150=

USA.gov is the U.S. government's official web portal to all federal, state and local government web resources and services.